Regional Weather Roundup
Issued by NWS

Home | Current Version | Previous Version | Graphics & Text | Print | Product List | Glossary On
Versions: 1 2 3 4 5 6 7 8 9 10 11 12 13 14 15 16 17 18 19 20 21 22 23 24 25 26 27 28 29 30 31 32 33 34 35 36 37 38 39 40 41 42 43 44 45 46 47 48 49 50
000
ASUS43 KMKX 060611
RWRWI

WISCONSIN REGIONAL WEATHER ROUNDUP
NATIONAL WEATHER SERVICE MILWAUKEE/SULLIVAN WI
100 AM CDT WED MAY 06 2015

NOTE: "FAIR" INDICATES FEW OR NO CLOUDS BELOW 12,000 FEET WITH NO
SIGNIFICANT WEATHER AND/OR OBSTRUCTIONS TO VISIBILITY.

WIZ001-002-006>008-014>016-023>028-060700-
NORTHWEST WISCONSIN

CITY           SKY/WX    TMP DP  RH WIND       PRES   REMARKS
SUPERIOR ARPT  CLOUDY    43  35  74 CALM      30.18R
6HR MIN TEMP:  42; 6HR MAX TEMP:  49;

ASHLAND        PTCLDY    39  33  79 CALM      30.19F
6HR MIN TEMP:  36; 6HR MAX TEMP:  51;

HAYWARD        CLEAR     56  28  34 VRB5      30.18S
6HR MIN TEMP:  56; 6HR MAX TEMP:  69;

SIREN          CLOUDY    59  40  48 SE7       30.15S
6HR MIN TEMP:  58; 6HR MAX TEMP:  69;

CUMBERLAND     DRIZZLE   55  43  62 SE12      30.16F
RICE LAKE      LGT RAIN  55  45  68 SE10      30.19S
6HR MIN TEMP:  55; 6HR MAX TEMP:  65;

CHETEK         LGT RAIN  54  46  75 E8        30.18S
6HR MIN TEMP:  54; 6HR MAX TEMP:  64;

LADYSMITH      MOCLDY    55  31  41 CALM      30.21S
6HR MIN TEMP:  54; 6HR MAX TEMP:  66;

EAU CLAIRE     LGT RAIN  52  47  83 SE7       30.18S
6HR MIN TEMP:  52; 6HR MAX TEMP:  64; 6HR PCP:  0.01;

MENOMONIE      CLOUDY    54  50  87 SE8       30.18S
6HR MIN TEMP:  54; 6HR MAX TEMP:  64;

NEW RICHMOND   RAIN      54  52  94 SE9       30.16R
6HR MIN TEMP:  54; 6HR MAX TEMP:  65; 6HR PCP:  0.02;

OSCEOLA        CLOUDY    56  51  82 SE6       30.17S
6HR MIN TEMP:  56; 6HR MAX TEMP:  66;

$$

WIZ003>005-009-010-017-018-060700-
NORTH CENTRAL WISCONSIN

CITY           SKY/WX    TMP DP  RH WIND       PRES   REMARKS
MANITOWISH WTR PTCLDY    51  29  44 SE5       30.22F
6HR MIN TEMP:  50; 6HR MAX TEMP:  67;

ARBOR VITAE    PTCLDY    52  28  40 SE6       30.22F
6HR MIN TEMP:  52; 6HR MAX TEMP:  67;

WOODRUFF       PTCLDY    52  28  40 SE6       30.22F
6HR MIN TEMP:  52; 6HR MAX TEMP:  67;

RHINELANDER    PTCLDY    50  28  42 SE3       30.24F
6HR MIN TEMP:  48; 6HR MAX TEMP:  65;

EAGLE RIVER    PTCLDY    41  28  61 CALM      30.23F
6HR MIN TEMP:  40; 6HR MAX TEMP:  65;

LAND O LAKES   CLEAR     39  32  77 CALM      30.24F
6HR MIN TEMP:  38; 6HR MAX TEMP:  67;

PHILLIPS       CLOUDY    54  27  35 SE7       30.21S
6HR MIN TEMP:  53; 6HR MAX TEMP:  66;

TOMAHAWK       CLOUDY    50  28  41 CALM      30.24S
6HR MIN TEMP:  47; 6HR MAX TEMP:  64;

MEDFORD        CLOUDY    52  37  55 SE8G17    30.22S
6HR MIN TEMP:  52; 6HR MAX TEMP:  61;

MERRILL        CLOUDY    53  28  37 CALM      30.24S
$$

WIZ029-030-035-036-043>047-060700-
CENTRAL WISCONSIN

CITY           SKY/WX    TMP DP  RH WIND       PRES   REMARKS
WAUSAU         LGT RAIN  53  33  46 SE6       30.22S
6HR MIN TEMP:  53; 6HR MAX TEMP:  62; 6HR PCP: TRACE;

MOSINEE        RAIN      50  43  76 E3        30.24S
MARSHFIELD     CLOUDY    53  43  68 SE10      30.22S
6HR MIN TEMP:  53; 6HR MAX TEMP:  61; 6HR PCP:  0.01;

STEVENS POINT  RAIN      51  47  85 CALM      30.23S
6HR MIN TEMP:  51; 6HR MAX TEMP:  60;

WAUPACA        DRIZZLE   56  45  66 E6        30.24S
6HR MIN TEMP:  56; 6HR MAX TEMP:  63;

WAUTOMA        LGT RAIN  51  51 100 CALM      30.24S
6HR MIN TEMP:  51; 6HR MAX TEMP:  58; 6HR PCP:  0.07;

WISC RAPIDS    LGT RAIN  51  47  86 SE5       30.23S
6HR MIN TEMP:  52; 6HR MAX TEMP:  62; 6HR PCP:  0.03;

CAMP DOUGLAS   CLOUDY    52  52 100 SE8       30.20S
6HR MIN TEMP:  52; 6HR MAX TEMP:  56; 6HR PCP:  0.06;

$$

WIZ011>013-019>022-031-037>040-048>050-060700-
NORTHEAST WISCONSIN

CITY           SKY/WX    TMP DP  RH WIND       PRES   REMARKS
ANTIGO         CLOUDY    51  32  49 SE6       30.24F
SHAWANO        CLOUDY    55  35  47 CALM      30.26S
6HR MIN TEMP:  54; 6HR MAX TEMP:  63;

OCONTO         CLOUDY    47  41  80 CALM      30.26S
6HR MIN TEMP:  46; 6HR MAX TEMP:  61;

STURGEON BAY   CLOUDY    52  28  40 E6        30.28S
6HR MIN TEMP:  52; 6HR MAX TEMP:  61;

GREEN BAY      CLOUDY    53  34  48 CALM      30.25F
6HR MIN TEMP:  53; 6HR MAX TEMP:  62;

MANITOWOC      CLOUDY    50  41  71 CALM      30.25F
6HR MIN TEMP:  47; 6HR MAX TEMP:  52; 6HR PCP: TRACE;

APPLETON       CLOUDY    54  30  40 E6        30.24S
CLINTONVILLE   CLOUDY    54  34  47 E3        30.25S
OSHKOSH        LGT RAIN  53  42  66 SE3       30.23F
6HR MIN TEMP:  53; 6HR MAX TEMP:  58; 6HR PCP: TRACE;

$$

WIZ032>034-041-042-053>061-060700-
SOUTHWEST WISCONSIN

CITY           SKY/WX    TMP DP  RH WIND       PRES   REMARKS
LA CROSSE      CLOUDY    56  52  86 SE6       30.17F
6HR MIN TEMP:  56; 6HR MAX TEMP:  57; 6HR PCP:  0.13;

SPARTA         CLOUDY    52  51  93 E3        30.20S
6HR MIN TEMP:  52; 6HR MAX TEMP:  55; 6HR PCP:  0.04;

VIROQUA        CLOUDY    52  52 100 SE12      30.17F
6HR MIN TEMP:  52; 6HR MAX TEMP:  53; 6HR PCP:  0.02;

BOSCOBEL       CLOUDY    56  52  86 NE3       30.19F FOG
6HR MIN TEMP:  55; 6HR MAX TEMP:  56; 6HR PCP:  0.04;

PRAIRIE DU CHI CLOUDY    55  52  89 E5        30.17S
6HR MIN TEMP:  55; 6HR MAX TEMP:  56; 6HR PCP:  0.01;

PLATTEVILLE    CLOUDY    52  51  95 E12       30.18S
6HR MIN TEMP:  52; 6HR MAX TEMP:  56;

$$

WIZ056-057-062-063-064-067-068-060700-
SOUTH CENTRAL WISCONSIN

CITY           SKY/WX    TMP DP  RH WIND       PRES   REMARKS
REEDSBURG      CLOUDY    51  50  94 E3        30.20F
6HR MIN TEMP:  51; 6HR MAX TEMP:  54;

BARABOO/DELLS  NOT AVBL
LONE ROCK      CLOUDY    53  50  89 E9        30.20F
6HR MIN TEMP:  53; 6HR MAX TEMP:  56; 6HR PCP:  0.03;

MINERAL POINT  CLOUDY    52  50  93 E7        30.19F FOG
MADISON        CLOUDY    52  49  89 MISG      30.21F
6HR MIN TEMP:  52; 6HR MAX TEMP:  55; 6HR PCP:  0.03;

MIDDLETON      CLOUDY    53  51  94 SE9       30.21F
6HR MIN TEMP:  53; 6HR MAX TEMP:  56;

WATERTOWN      CLOUDY    49  49 100 E3        30.22S
6HR MIN TEMP:  49; 6HR MAX TEMP:  53;

MONROE         FOG       50  50 100 E9        30.19F VSB 1/2
JANESVILLE     CLOUDY    52  50  93 E8        30.21S FOG
$$

WIZ051-052-058>065-066-070>072-060700-
SOUTHEAST WISCONSIN

CITY           SKY/WX    TMP DP  RH WIND       PRES   REMARKS
MILWAUKEE      CLOUDY    46  35  65 VRB3      30.24F
6HR MIN TEMP:  45; 6HR MAX TEMP:  47; 6HR PCP: TRACE;

WAUKESHA       MOCLDY    45  41  87 E5        30.24F
MILWAUKEE/TIMM CLOUDY    45  37  76 NE5       30.24F
RACINE         CLOUDY    46  36  68 NE9       30.24F
6HR MIN TEMP:  45; 6HR MAX TEMP:  46;

BURLINGTON     CLOUDY    46  44  92 NE3       30.22F
6HR MIN TEMP:  46; 6HR MAX TEMP:  47;

KENOSHA        CLOUDY    48  42  80 E6        30.23F
6HR MIN TEMP:  47; 6HR MAX TEMP:  48;

FOND DU LAC    LGT RAIN  50  44  80 CALM      30.24S
6HR MIN TEMP:  50; 6HR MAX TEMP:  55; 6HR PCP:  0.08;

SHEBOYGAN      LGT RAIN  48  41  76 CALM      30.24F
6HR MIN TEMP:  47; 6HR MAX TEMP:  54; 6HR PCP: TRACE;

WEST BEND      LGT RAIN  45  41  87 CALM      30.24F
JUNEAU         CLOUDY    50  48  93 E6        30.23F
6HR MIN TEMP:  50; 6HR MAX TEMP:  53; 6HR PCP:  0.08;

$$

LSZ147-162-060700-
LAKE SUPERIOR

STATION/POSITION TIME  TEMP    WIND        PRES    WAVE
                       AIR SEA DIR/SP/G            HT/PER
                 (UTC) (F)     (DEG/KT/KT) (MB)    (FT/S)
W MID LAKE BUOY  0550   42 35  160/  8/ 10 1023.3R   1
DEVILS ISLAND    0600   43      20/  4/  4 1022.9F
PORT WING        0500   39     130/  2/  3 1022.4S
SAXON HARBOR     0500   47      CALM  /  4 1021.7S
$$

LMZ867-665-643>646-060700-
LAKE MICHIGAN

STATION/POSITION TIME  TEMP    WIND        PRES    WAVE
                       AIR SEA DIR/SP/G            HT/PER
                 (UTC) (F)     (DEG/KT/KT) (MB)    (FT/S)
CHAMBERS ISLAND  0500   43        CALM     1024.7S


USA.gov is the U.S. government's official web portal to all federal, state and local government web resources and services.